TimeCST,TemperatureF,Dew PointF,Humidity,Sea Level PressureIn,VisibilityMPH,Wind Direction,Wind SpeedMPH,Gust SpeedMPH,PrecipitationIn,Events,Conditions,WindDirDegrees,DateUTC
12:00 AM,69,66,88,29.81,6,Calm,Calm,,,,Partly Cloudy,,2013-04-30 06:00:00
12:00 AM,69.8,66.2,88,30.01,6.2,Calm,Calm,-,N/A,,Mostly Cloudy,0,2013-04-30 06:00:00
1:00 AM,69.8,66.2,88,29.99,6.2,East,4.6,-,N/A,,Mostly Cloudy,80,2013-04-30 07:00:00
2:00 AM,69.8,64.4,83,29.98,6.2,Calm,Calm,-,N/A,,Mostly Cloudy,0,2013-04-30 08:00:00
3:00 AM,69,66,86,29.81,6,Calm,Calm,,,,Partly Cloudy,,2013-04-30 09:00:00
3:00 AM,69.8,66.2,88,29.99,-9999.0,Calm,Calm,-,N/A,,Mostly Cloudy,0,2013-04-30 09:00:00
4:00 AM,69.8,62.6,78,29.97,6.2,Calm,Calm,-,N/A,,Mostly Cloudy,0,2013-04-30 10:00:00
5:00 AM,69.8,60.8,73,29.99,6.2,ENE,5.8,-,N/A,,Mostly Cloudy,60,2013-04-30 11:00:00
6:00 AM,69,63,74,29.87,9,NE,4.6,,,,Partly Cloudy,50,2013-04-30 12:00:00
6:00 AM,69.8,62.6,78,30.00,-9999.0,NE,4.6,-,N/A,,Clear,50,2013-04-30 12:00:00
7:00 AM,73.4,60.8,65,30.01,-9999.0,NE,6.9,-,N/A,,Clear,40,2013-04-30 13:00:00
8:00 AM,78.8,62.6,57,30.03,-9999.0,SW,2.3,-,N/A,,Clear,230,2013-04-30 14:00:00
9:00 AM,,64,,29.85,0,NNE,69.0,,,,Scattered Clouds,20,2013-04-30 15:00:00
9:00 AM,78.8,64.4,61,30.03,-9999.0,WSW,5.8,-,N/A,,Mostly Cloudy,250,2013-04-30 15:00:00
10:00 AM,80.6,62.6,54,30.02,6.2,SW,8.1,-,N/A,,Mostly Cloudy,230,2013-04-30 16:00:00
11:00 AM,82.4,66.2,58,30.01,6.2,SW,10.4,-,N/A,,Mostly Cloudy,230,2013-04-30 17:00:00
12:00 PM,83,66,47,29.81,12,SW,11.5,,,,Partly Cloudy,230,2013-04-30 18:00:00
12:00 PM,82.4,66.2,58,29.99,6.2,SW,11.5,-,N/A,,Scattered Clouds,230,2013-04-30 18:00:00
1:00 PM,82.4,68.0,62,29.97,6.2,WSW,11.5,-,N/A,,Scattered Clouds,240,2013-04-30 19:00:00
2:00 PM,80.6,66.2,61,29.95,6.2,WSW,11.5,-,N/A,,Scattered Clouds,240,2013-04-30 20:00:00
3:00 PM,82,67,52,29.75,12,SW,11.5,,,,Partly Cloudy,230,2013-04-30 21:00:00
3:00 PM,82.4,64.4,54,29.94,6.2,SW,11.5,-,N/A,,Mostly Cloudy,230,2013-04-30 21:00:00
4:00 PM,77.0,68.0,74,29.93,6.2,WSW,12.7,-,N/A,,Mostly Cloudy,240,2013-04-30 22:00:00
5:00 PM,75.2,68.0,78,29.95,6.2,SW,10.4,-,N/A,,Mostly Cloudy,220,2013-04-30 23:00:00
6:00 PM,73,67,76,29.81,9,WSW,8.1,,,,Partly Cloudy,240,2013-05-01 00:00:00
6:00 PM,73.4,66.2,78,29.97,6.2,WSW,8.1,-,N/A,,Mostly Cloudy,240,2013-05-01 00:00:00
7:00 PM,71.6,66.2,83,29.99,6.2,WSW,4.6,-,N/A,,Mostly Cloudy,240,2013-05-01 01:00:00
8:00 PM,71.6,68.0,88,30.01,6.2,West,4.6,-,N/A,,Mostly Cloudy,270,2013-05-01 02:00:00
9:00 PM,71,68,87,29.83,5,SW,2.3,,,,Mist,220,2013-05-01 03:00:00
9:00 PM,71.6,68.0,88,30.03,5.0,SW,2.3,-,N/A,Fog,Fog,220,2013-05-01 03:00:00
10:00 PM,71.6,68.0,88,30.03,3.1,WSW,4.6,-,N/A,,Light Drizzle,240,2013-05-01 04:00:00
11:00 PM,71.6,68.0,88,30.03,5.0,SSW,3.5,-,N/A,Fog,Fog,200,2013-05-01 05:00:00